TimePST,TemperatureF,Dew PointF,Humidity,Sea Level PressureIn,VisibilityMPH,Wind Direction,Wind SpeedMPH,Gust SpeedMPH,PrecipitationIn,Events,Conditions,WindDirDegrees,DateUTC
12:53 AM,54.0,36.0,51,29.74,10.0,SSE,15.0,24.2,N/A,,Mostly Cloudy,160,2012-11-19 08:53:00
1:53 AM,55.0,37.0,51,29.75,10.0,South,8.1,-,0.00,,Overcast,180,2012-11-19 09:53:00
2:53 AM,55.0,37.0,51,29.74,10.0,SSW,5.8,-,N/A,,Overcast,200,2012-11-19 10:53:00
3:53 AM,57.0,36.0,45,29.73,10.0,SSW,10.4,-,N/A,,Overcast,210,2012-11-19 11:53:00
4:53 AM,59.0,36.0,42,29.72,10.0,South,17.3,27.6,N/A,,Overcast,180,2012-11-19 12:53:00
5:53 AM,59.0,35.1,41,29.71,10.0,South,21.9,32.2,N/A,,Overcast,180,2012-11-19 13:53:00
6:53 AM,57.9,35.1,42,29.72,10.0,South,19.6,26.5,N/A,,Overcast,170,2012-11-19 14:53:00
7:53 AM,59.0,35.1,41,29.72,10.0,South,20.7,31.1,N/A,,Mostly Cloudy,170,2012-11-19 15:53:00
8:53 AM,60.1,36.0,41,29.71,10.0,South,20.7,34.5,N/A,,Overcast,170,2012-11-19 16:53:00
9:53 AM,62.1,36.0,38,29.69,10.0,South,26.5,38.0,N/A,,Mostly Cloudy,180,2012-11-19 17:53:00
10:53 AM,63.0,36.0,37,29.67,10.0,South,28.8,39.1,N/A,,Overcast,170,2012-11-19 18:53:00
11:53 AM,63.0,37.0,38,29.65,10.0,SSE,16.1,27.6,N/A,,Overcast,160,2012-11-19 19:53:00
12:53 PM,64.0,37.0,37,29.62,10.0,South,21.9,33.4,N/A,,Overcast,180,2012-11-19 20:53:00
1:53 PM,64.0,37.0,37,29.60,10.0,South,20.7,28.8,N/A,,Overcast,180,2012-11-19 21:53:00
2:53 PM,64.0,37.9,38,29.60,10.0,SSE,19.6,28.8,N/A,,Overcast,160,2012-11-19 22:53:00
3:53 PM,64.9,37.9,37,29.59,10.0,South,12.7,29.9,N/A,,Overcast,170,2012-11-19 23:53:00
4:53 PM,66.0,37.9,36,29.57,10.0,South,19.6,28.8,N/A,,Overcast,180,2012-11-20 00:53:00
5:53 PM,66.0,37.9,36,29.61,10.0,South,15.0,28.8,N/A,,Overcast,190,2012-11-20 01:53:00
6:21 PM,59.0,44.6,59,29.68,10.0,West,19.6,32.2,0.00,Rain,Light Rain,280,2012-11-20 02:21:00
6:29 PM,55.4,48.2,77,29.68,10.0,West,16.1,28.8,0.01,Rain,Light Rain,280,2012-11-20 02:29:00
6:53 PM,55.9,48.0,75,29.69,10.0,West,9.2,-,0.01,Rain,Light Rain,280,2012-11-20 02:53:00
7:53 PM,53.1,46.9,80,29.69,10.0,West,3.5,-,0.01,Rain,Light Rain,260,2012-11-20 03:53:00
8:53 PM,51.1,48.0,89,29.73,10.0,South,4.6,-,0.00,Rain,Light Rain,170,2012-11-20 04:53:00
9:53 PM,50.0,48.0,93,29.77,10.0,Calm,Calm,-,0.04,Rain,Light Rain,0,2012-11-20 05:53:00
10:28 PM,51.8,48.2,88,29.80,10.0,South,6.9,-,0.01,Rain,Light Rain,180,2012-11-20 06:28:00
10:53 PM,50.0,48.9,96,29.80,9.0,South,4.6,-,0.03,Rain,Light Rain,170,2012-11-20 06:53:00
11:53 PM,50.0,48.9,96,29.83,10.0,SSE,3.5,-,0.05,Rain,Light Rain,160,2012-11-20 07:53:00